KC0AFB Weather Reports


time (UTC)temp
C
wind
direction
speed
KPH
gust
KPH
rain 1hr
cm
rain 24hr
cm
rain mn
cm
humidity
%
barometer
mb
20260504050305 11 338 27.4 32.2 0.00 0.00 0.00 63 1001.2
20260504045802 11 327 19.3 29.0 0.00 0.00 0.00 62 1001.3
20260504045257 12 15 29.0 37.0 0.00 0.00 0.00 61 1000.8
20260504044755 15 2 29.0 37.0 0.00 0.00 0.00 55 1000.4
20260504044252 16 299 19.3 22.5 0.00 0.00 0.00 40 999.8
20260504043749 16 264 17.7 20.9 0.00 0.00 0.00 37 998.8
20260504043246 15 287 12.9 17.7 0.00 0.00 0.00 41 998.9
20260504042744 15 233 4.8 4.8 0.00 0.00 0.00 44 998.7
20260504042240 15 245 3.2 4.8 0.00 0.00 0.00 45 998.5
20260504041736 15 299 6.4 8.0 0.00 0.00 0.00 45 998.6
20260504041232 15 297 6.4 9.7 0.00 0.00 0.00 44 999.0
20260504040728 15 272 8.0 8.0 0.00 0.00 0.00 44 998.9
20260504040226 16 262 8.0 11.3 0.00 0.00 0.00 45 998.6
20260504035722 16 255 8.0 9.7 0.00 0.00 0.00 45 998.8
20260504035220 15 231 9.7 11.3 0.00 0.00 0.00 46 998.8
20260504034717 15 223 4.8 8.0 0.00 0.00 0.00 47 998.7
20260504034214 15 217 6.4 8.0 0.00 0.00 0.00 47 998.7
20260504033712 15 222 8.0 9.7 0.00 0.00 0.00 47 999.1
20260504033209 15 237 8.0 11.3 0.00 0.00 0.00 47 998.9
20260504032706 15 227 6.4 9.7 0.00 0.00 0.00 47 998.9
20260504032203 15 193 4.8 8.0 0.00 0.00 0.00 47 999.1
20260504031659 15 236 8.0 9.7 0.00 0.00 0.00 47 999.3
20260504031156 15 286 6.4 8.0 0.00 0.00 0.00 47 999.0
20260504030652 16 240 6.4 9.7 0.00 0.00 0.00 47 999.2
20260504030150 16 241 6.4 8.0 0.00 0.00 0.00 46 999.3
20260504025646 16 199 6.4 8.0 0.00 0.00 0.00 46 999.3
20260504025142 16 226 8.0 9.7 0.00 0.00 0.00 45 999.2
20260504024635 16 237 8.0 9.7 0.00 0.00 0.00 45 999.6
20260504024131 17 244 6.4 9.7 0.00 0.00 0.00 44 999.6
20260504023627 17 247 11.3 12.9 0.00 0.00 0.00 43 999.6
20260504023124 17 239 8.0 9.7 0.00 0.00 0.00 42 999.7
20260504022620 17 224 6.4 8.0 0.00 0.00 0.00 42 999.7
20260504022116 18 239 11.3 12.9 0.00 0.00 0.00 41 999.8
20260504021614 18 241 12.9 16.1 0.00 0.00 0.00 41 999.7
20260504021110 18 280 11.3 14.5 0.00 0.00 0.00 40 1000.0
20260504020608 18 238 6.4 8.0 0.00 0.00 0.00 40 1000.1
20260504020104 18 237 9.7 11.3 0.00 0.00 0.00 39 1000.0
20260504015600 18 238 11.3 14.5 0.00 0.00 0.00 39 1000.3
20260504015056 19 244 9.7 11.3 0.00 0.00 0.00 39 1000.1
20260504014552 20 184 14.5 17.7 0.00 0.00 0.00 37 1000.1
20260504014050 20 214 8.0 11.3 0.00 0.00 0.00 37 1000.0
20260504013547 20 236 11.3 12.9 0.00 0.00 0.00 37 1000.3
20260504013044 20 234 12.9 16.1 0.00 0.00 0.00 36 1000.3
20260504012542 20 215 17.7 20.9 0.00 0.00 0.00 35 1000.2
20260504012039 20 265 11.3 16.1 0.00 0.00 0.00 36 1000.3
20260504011536 20 235 11.3 14.5 0.00 0.00 0.00 36 1000.1
20260504011032 20 266 9.7 12.9 0.00 0.00 0.00 36 1000.7
20260504010527 20 217 8.0 11.3 0.00 0.00 0.00 37 1000.7
20260504010018 20 275 8.0 11.3 0.00 0.00 0.00 37 1000.8
20260504005515 20 254 4.8 4.8 0.00 0.00 0.00 37 1001.0
20260504005013 20 268 8.0 9.7 0.00 0.00 0.00 37 1000.9
20260504004510 21 253 11.3 12.9 0.00 0.00 0.00 35 1000.9
20260504004007 21 279 17.7 22.5 0.00 0.00 0.00 34 1001.0
20260504003503 21 265 11.3 14.5 0.00 0.00 0.00 34 1001.1
20260504003000 22 209 11.3 17.7 0.00 0.00 0.00 33 1001.3
20260504002457 22 264 12.9 16.1 0.00 0.00 0.00 32 1001.7
20260504001954 22 258 11.3 14.5 0.00 0.00 0.00 32 1001.6
20260504001452 22 248 19.3 24.1 0.00 0.00 0.00 31 1001.9
20260504000948 22 261 12.9 16.1 0.00 0.00 0.00 33 1001.9
20260504000445 22 253 9.7 11.3 0.00 0.00 0.00 33 1001.7
20260503235943 22 267 11.3 14.5 0.00 0.00 0.00 32 1002.1
20260503235440 21 264 8.0 11.3 0.00 0.00 0.00 33 1002.2
20260503234937 21 248 8.0 9.7 0.00 0.00 0.00 34 1002.2
20260503234435 21 266 12.9 20.9 0.00 0.00 0.00 33 1002.3
20260503233933 22 235 11.3 14.5 0.00 0.00 0.00 32 1002.5
20260503233429 22 212 14.5 16.1 0.00 0.00 0.00 31 1002.7
20260503232926 22 278 17.7 22.5 0.00 0.00 0.00 32 1002.6
20260503232422 21 269 12.9 14.5 0.00 0.00 0.00 31 1002.7
20260503231920 21 248 16.1 20.9 0.00 0.00 0.00 33 1002.8
20260503231418 21 276 9.7 14.5 0.00 0.00 0.00 33 1003.0
20260503230914 21 284 14.5 17.7 0.00 0.00 0.00 32 1002.8
20260503230410 22 250 14.5 17.7 0.00 0.00 0.00 31 1003.1
20260503225908 22 283 17.7 22.5 0.00 0.00 0.00 31 1003.0
20260503225404 22 255 19.3 24.1 0.00 0.00 0.00 30 1002.9
20260503224900 23 254 12.9 17.7 0.00 0.00 0.00 32 1003.1
20260503224357 23 254 16.1 17.7 0.00 0.00 0.00 29 1003.2
20260503223855 23 281 17.7 20.9 0.00 0.00 0.00 29 1003.3
20260503223353 22 288 11.3 12.9 0.00 0.00 0.00 31 1003.4
20260503222848 23 290 20.9 25.7 0.00 0.00 0.00 28 1003.5
20260503222347 23 219 12.9 16.1 0.00 0.00 0.00 29 1003.5
20260503221845 23 237 17.7 32.2 0.00 0.00 0.00 29 1003.8
20260503221343 23 239 16.1 22.5 0.00 0.00 0.00 30 1003.8
20260503220838 22 291 19.3 22.5 0.00 0.00 0.00 30 1003.8
20260503220336 23 252 16.1 20.9 0.00 0.00 0.00 30 1003.9
20260503215833 22 242 22.5 27.4 0.00 0.00 0.00 29 1003.9
20260503215330 23 275 14.5 17.7 0.00 0.00 0.00 32 1003.8
20260503214827 23 217 24.1 33.8 0.00 0.00 0.00 29 1004.1
20260503214325 23 234 17.7 22.5 0.00 0.00 0.00 29 1004.2
20260503213822 23 227 17.7 25.7 0.00 0.00 0.00 32 1004.2
20260503213319 23 295 17.7 24.1 0.00 0.00 0.00 31 1004.5
20260503212816 23 240 20.9 25.7 0.00 0.00 0.00 30 1004.4
20260503212314 22 250 16.1 20.9 0.00 0.00 0.00 31 1004.6
20260503211811 22 254 14.5 20.9 0.00 0.00 0.00 32 1004.8
20260503211308 22 274 17.7 20.9 0.00 0.00 0.00 31 1004.9
20260503210808 22 212 19.3 24.1 0.00 0.00 0.00 31 1005.1
20260503210305 23 280 14.5 20.9 0.00 0.00 0.00 32 1005.3
20260503205800 22 245 17.7 20.9 0.00 0.00 0.00 31 1005.5
20260503205257 22 205 17.7 24.1 0.00 0.00 0.00 32 1005.7
20260503204754 22 221 14.5 16.1 0.00 0.00 0.00 32 1005.9
20260503204251 22 276 17.7 20.9 0.00 0.00 0.00 32 1005.9
20260503203749 22 286 20.9 25.7 0.00 0.00 0.00 32 1006.1
20260503203246 22 250 17.7 20.9 0.00 0.00 0.00 31 1006.2
20260503202743 22 297 16.1 24.1 0.00 0.00 0.00 31 1006.2
20260503202241 22 280 17.7 25.7 0.00 0.00 0.00 32 1006.5
20260503201738 22 250 16.1 20.9 0.00 0.00 0.00 31 1006.5
20260503201236 22 270 17.7 25.7 0.00 0.00 0.00 31 1006.5
20260503200732 22 273 24.1 32.2 0.00 0.00 0.00 29 1006.7
20260503200228 22 282 24.1 27.4 0.00 0.00 0.00 31 1006.7
20260503195725 22 280 16.1 20.9 0.00 0.00 0.00 32 1006.9
20260503195222 22 299 11.3 12.9 0.00 0.00 0.00 32 1007.0
20260503194720 22 287 24.1 33.8 0.00 0.00 0.00 31 1007.2
20260503194215 22 285 14.5 16.1 0.00 0.00 0.00 32 1007.1
20260503193712 22 284 17.7 24.1 0.00 0.00 0.00 33 1007.5
20260503193208 21 229 19.3 25.7 0.00 0.00 0.00 32 1007.2
20260503192704 21 211 19.3 22.5 0.00 0.00 0.00 32 1007.7
20260503192159 22 211 14.5 17.7 0.00 0.00 0.00 34 1007.8
20260503191655 21 237 19.3 24.1 0.00 0.00 0.00 31 1007.7
20260503191153 21 235 14.5 17.7 0.00 0.00 0.00 33 1007.9
20260503190650 21 228 22.5 27.4 0.00 0.00 0.00 33 1008.2
20260503190147 21 272 24.1 29.0 0.00 0.00 0.00 31 1008.4
20260503185643 21 269 12.9 14.5 0.00 0.00 0.00 34 1008.3
20260503185139 21 268 11.3 12.9 0.00 0.00 0.00 35 1008.5
20260503184634 21 221 17.7 20.9 0.00 0.00 0.00 34 1008.6
20260503184131 21 303 12.9 16.1 0.00 0.00 0.00 34 1008.6
20260503183627 21 270 17.7 24.1 0.00 0.00 0.00 34 1008.9
20260503183125 20 297 14.5 22.5 0.00 0.00 0.00 35 1009.3
20260503182623 21 293 12.9 16.1 0.00 0.00 0.00 37 1009.4
20260503182121 20 284 11.3 12.9 0.00 0.00 0.00 34 1009.3
20260503181617 20 242 22.5 25.7 0.00 0.00 0.00 35 1009.7
20260503181114 20 216 6.4 9.7 0.00 0.00 0.00 36 1009.7
20260503180611 20 271 8.0 11.3 0.00 0.00 0.00 37 1010.0
20260503180109 20 241 14.5 17.7 0.00 0.00 0.00 36 1009.9
20260503175605 20 226 14.5 16.1 0.00 0.00 0.00 36 1010.1
20260503175103 20 244 12.9 16.1 0.00 0.00 0.00 37 1010.2
20260503174559 19 271 11.3 12.9 0.00 0.00 0.00 37 1010.3
20260503174056 20 304 14.5 20.9 0.00 0.00 0.00 36 1010.6
20260503173551 19 224 19.3 25.7 0.00 0.00 0.00 37 1010.6
20260503173048 19 226 19.3 27.4 0.00 0.00 0.00 36 1010.7
20260503172545 20 273 14.5 16.1 0.00 0.00 0.00 36 1010.8
20260503172042 19 277 12.9 17.7 0.00 0.00 0.00 37 1010.9
20260503171539 18 254 11.3 12.9 0.00 0.00 0.00 38 1011.1
20260503171036 18 253 9.7 11.3 0.00 0.00 0.00 38 1011.3
20260503170532 18 245 14.5 16.1 0.00 0.00 0.00 38 1011.3
20260503150925 13 209 6.4 8.0 0.00 0.00 0.00 50 1012.9
20260503150421 12 221 11.3 12.9 0.00 0.00 0.00 52 1012.9
20260503131314 6 225 1.6 3.2 0.00 0.00 0.00 65 1014.0
20260503130812 6 171 1.6 1.6 0.00 0.00 0.00 65 1013.9
20260503130309 5 144 1.6 1.6 0.00 0.00 0.00 65 1013.9
20260503110703 2 315 1.6 1.6 0.00 0.00 0.00 72 1014.1
20260503110200 2 316 0.0 0.0 0.00 0.00 0.00 72 1013.7
20260503100121 2 175 0.0 0.0 0.00 0.00 0.00 72 1014.1
20260503081458 4 243 0.0 0.0 0.00 0.00 0.00 67 1013.8
20260503080955 5 240 1.6 1.6 0.00 0.00 0.00 65 1013.9
20260503080452 5 289 1.6 1.6 0.00 0.00 0.00 63 1013.7
20260503072928 6 287 4.8 4.8 0.00 0.00 0.00 61 1013.8